Whyalla, Australia

8:58 PM ACST on June 27, 2017 (GMT +0930)
Whyalla

Weather History for 94664 - June, 2013

Change the Weather History Date:

Sunday, June 2, 2013

  Actual Average Record
Temperature  
Mean Temperature 58 °F -  
Max Temperature 62 °F - - ()
Min Temperature 55 °F - - ()
Degree Days  
Heating Degree Days 6    
Growing Degree Days 8 (Base 50)    
Moisture  
Dew Point 48 °F    
Average Humidity 69    
Maximum Humidity 88    
Minimum Humidity 55    
Precipitation  
Precipitation 0.00 in - - ()
Sea Level Pressure  
Sea Level Pressure 30.23 in    
Wind  
Wind Speed 16 mph ()    
Max Wind Speed 22 mph    
Max Gust Speed 32 mph    
Visibility 6.2 miles    
Events      
T = Trace of Precipitation, MM = Missing Value Source: Averaged Metar Reports

Daily Weather History Graph

Daily Weather History Graph

Search for Another Location

Airport or City:

Trip Planner

Search our weather history database for the weather conditions in past years. The results will help you decide how hot, cold, wet, or windy it might be!

Date:

Astronomy

Jun. 02, 2013 Rise Set
Actual Time 7:14 AM ACST 5:20 PM ACST
Civil Twilight 6:47 AM ACST 5:47 PM ACST
Nautical Twilight 6:17 AM ACST 6:18 PM ACST
Astronomical Twilight 5:47 AM ACST 6:48 PM ACST
Moon 1:04 AM ACST (6/2) 1:16 PM ACST (6/2)
Length of Visible Light 11h 00m
Length of Day
10h 05m
Last Quarter, 36% of the Moon is Illuminated
Jun 2
Last Quarter
Jun 9
New
Jun 17
First Quarter
Jun 23
Full
Jun 30
Last Quarter

Hourly Weather History & Observations

Time (ACST) Temp. Dew Point Humidity Pressure Visibility Wind Dir Wind Speed Gust Speed Precip Events Conditions
12:30 AM 59.0 °F 51.8 °F 77% 30.09 in 6.2 mi South 21.9 mph - N/A   Overcast
1:30 AM 57.2 °F 51.8 °F 82% 30.09 in 6.2 mi South 20.7 mph - N/A   Mostly Cloudy
2:30 AM 59.0 °F 50.0 °F 72% 30.12 in 6.2 mi South 20.7 mph - N/A   Mostly Cloudy
3:30 AM 57.2 °F 46.4 °F 67% 30.15 in 6.2 mi South 21.9 mph - N/A   Overcast
4:23 AM 57.2 °F 46.4 °F 67% 30.15 in 6.2 mi South 20.7 mph 32.2 mph N/A   Overcast
4:30 AM 57.2 °F 48.2 °F 72% 30.15 in 6.2 mi South 19.6 mph 32.2 mph N/A   Overcast
5:32 AM 57.2 °F 44.6 °F 63% 30.18 in 6.2 mi South 20.7 mph 32.2 mph N/A   Overcast
6:30 AM 57.2 °F 44.6 °F 63% 30.21 in 6.2 mi South 17.3 mph - N/A   Overcast
6:54 AM 57.2 °F 42.8 °F 59% 30.21 in 6.2 mi South 18.4 mph 29.9 mph N/A   Overcast
7:00 AM 57.2 °F 44.6 °F 63% 30.21 in 6.2 mi SSE 18.4 mph 29.9 mph N/A   Overcast
7:30 AM 57.2 °F 44.6 °F 63% 30.21 in 6.2 mi South 17.3 mph - N/A   Mostly Cloudy
8:30 AM 59.0 °F 42.8 °F 55% 30.24 in 6.2 mi South 20.7 mph - N/A   Overcast
9:30 AM 59.0 °F 46.4 °F 63% 30.27 in 6.2 mi South 15.0 mph - N/A   Overcast
10:30 AM 60.8 °F 48.2 °F 63% 30.27 in 6.2 mi South 18.4 mph - N/A   Scattered Clouds
11:30 AM 60.8 °F 48.2 °F 63% 30.27 in 6.2 mi South 16.1 mph - N/A   Unknown
12:30 PM 62.6 °F 48.2 °F 59% 30.27 in 6.2 mi South 17.3 mph - N/A   Scattered Clouds
1:30 PM 62.6 °F 50.0 °F 63% 30.24 in 6.2 mi South 19.6 mph - N/A   Mostly Cloudy
2:30 PM 60.8 °F 50.0 °F 68% 30.24 in 6.2 mi South 15.0 mph - N/A   Overcast
3:30 PM 60.8 °F 50.0 °F 68% 30.27 in 6.2 mi South 15.0 mph - N/A   Overcast
4:30 PM 60.8 °F 50.0 °F 68% 30.27 in 6.2 mi SSW 16.1 mph - N/A   Mostly Cloudy
5:30 PM 59.0 °F 48.2 °F 67% 30.30 in 6.2 mi SSW 12.7 mph - N/A   Overcast
6:30 PM 59.0 °F 48.2 °F 67% 30.30 in 6.2 mi SSW 10.4 mph - N/A   Overcast
7:30 PM 59.0 °F 50.0 °F 72% 30.30 in 6.2 mi SSW 9.2 mph - N/A   Overcast
8:30 PM 59.0 °F 51.8 °F 77% 30.30 in 6.2 mi SSE 8.1 mph - N/A   Overcast
9:30 PM 57.2 °F 51.8 °F 82% 30.33 in 6.2 mi SE 6.9 mph - N/A   Mostly Cloudy
10:30 PM 55.4 °F 50.0 °F 82% 30.33 in 6.2 mi SE 5.8 mph - N/A   Unknown
11:30 PM 55.4 °F 51.8 °F 88% 30.33 in 6.2 mi SSE 6.9 mph - N/A   Unknown